Wind_Speed
39 38 37 36 36 35 34 33 32 32 32 31 30 30 29 28 27 26 26 25 25 25 25 25 25 25 26 26 26 27 28 28 28 29 30 31 32 34 35 37 38 39 40
42 40 40 39 38 37 36 35 35 34 34 33 33 32 31 30 29 28 28 27 27 27 27 27 27 27 27 27 27 28 28 29 30 30 31 32 33 35 36 38 39 40 41
44 43 42 41 41 40 39 38 37 37 36 35 34 33 33 32 31 31 30 29 29 28 28 28 28 28 28 28 28 29 29 30 31 31 32 33 35 36 37 39 40 41 43
47 46 45 44 43 43 41 40 39 39 38 38 36 35 34 34 33 33 32 31 30 30 29 29 29 29 29 29 29 30 30 31 32 32 33 34 36 37 38 40 41 42 44
49 48 47 46 45 45 44 43 41 41 40 39 38 37 36 35 35 34 33 32 32 31 31 30 30 30 30 30 30 31 32 32 33 34 34 35 37 38 39 41 42 43 45
51 50 49 48 47 46 46 45 43 43 42 41 40 39 38 37 37 36 35 34 33 32 32 32 31 31 31 31 32 32 33 33 34 35 36 37 38 39 41 42 43 44 45
53 52 51 50 49 48 47 46 45 45 44 43 42 41 40 40 38 37 36 35 34 34 33 33 32 32 32 32 33 33 34 34 35 36 37 38 39 40 42 43 44 45 46
54 53 52 52 50 49 48 48 48 47 46 45 44 43 42 41 40 39 37 36 35 34 34 34 33 33 33 33 33 34 34 35 36 37 37 38 40 41 42 43 45 45 46
55 55 54 54 53 51 50 50 49 48 48 47 46 45 44 42 41 40 39 38 37 36 35 35 34 34 34 34 34 35 35 36 37 37 38 39 41 42 43 44 45 46 46
57 56 56 55 55 53 53 52 51 50 49 48 48 46 45 44 43 41 40 39 38 37 36 36 36 35 35 35 36 36 36 37 37 38 39 40 41 42 44 45 46 46 46
57 58 57 56 56 55 54 53 52 51 50 49 49 48 46 45 44 43 41 40 40 39 38 37 37 37 36 36 37 37 37 38 38 39 39 40 42 43 44 46 46 45 46
58 57 56 56 56 56 56 55 53 52 50 49 49 49 48 46 45 44 43 42 41 41 40 39 38 38 38 38 38 38 38 39 40 40 40 41 42 43 45 45 45 45 46
57 56 57 55 55 55 54 54 54 53 51 50 50 49 48 47 46 45 44 43 42 42 41 41 40 39 39 39 39 39 39 40 40 40 41 42 43 44 45 45 45 45 46
56 56 56 55 55 55 54 53 54 53 52 52 50 49 49 48 47 46 45 44 43 43 42 42 41 40 40 40 40 40 40 41 41 41 42 42 43 44 45 45 45 45 46
55 57 56 55 54 55 54 53 52 53 53 52 51 50 49 48 47 47 46 45 45 44 42 42 42 41 41 41 41 41 41 41 41 42 42 43 43 44 44 45 45 46 46
54 56 56 56 55 55 54 53 53 53 53 53 51 50 49 48 47 47 46 46 45 44 43 42 42 42 41 42 42 42 42 42 42 43 43 43 43 44 44 45 45 46 46
51 53 55 55 54 55 54 54 53 52 52 53 51 50 49 48 48 47 47 47 46 45 44 43 43 42 42 42 42 42 42 42 43 43 43 43 44 44 45 44 45 46 46
49 51 53 54 54 53 53 54 54 53 52 52 51 49 48 48 48 47 47 46 45 45 44 44 43 42 42 42 41 42 42 42 42 43 43 44 44 44 45 44 45 45 45
47 48 51 52 52 52 52 53 54 52 53 52 51 49 48 48 47 46 46 45 45 44 44 44 43 42 42 41 41 41 41 42 42 43 43 44 44 45 44 44 44 45 45
46 48 49 51 51 51 51 52 53 51 52 52 51 50 49 48 47 46 45 44 45 44 44 44 44 42 42 41 41 41 41 42 42 43 43 43 44 45 44 44 44 44 44
45 47 49 50 50 50 49 50 51 50 50 51 50 50 50 50 48 47 47 45 45 45 45 44 43 43 41 40 40 40 40 41 42 43 43 43 44 44 44 44 43 43 43
44 46 47 48 48 48 49 50 49 48 49 49 49 50 49 50 49 48 47 46 45 45 45 45 44 44 42 41 41 41 40 41 42 42 43 43 45 45 44 44 43 43 44
44 45 45 47 48 48 49 49 49 48 48 48 48 49 49 49 49 47 46 46 45 45 45 44 44 43 42 42 42 42 42 42 41 42 42 43 44 45 44 43 42 43 44
45 45 46 46 46 47 49 49 48 46 46 47 46 47 49 49 48 47 46 45 45 44 44 43 43 42 42 42 43 43 44 43 42 42 42 43 44 44 43 42 43 43 44
45 46 46 46 45 45 48 50 48 46 45 45 44 46 46 47 47 47 45 45 44 43 43 43 42 42 42 43 43 43 43 43 43 43 43 44 44 44 42 42 42 42 43
44 46 48 47 46 45 48 51 51 48 46 45 44 44 44 45 46 46 45 44 43 42 42 42 42 42 42 43 42 42 42 42 42 42 42 43 42 43 41 41 41 42 44
Wind_Direction
249 250 250 250 251 253 253 254 255 255 256 257 259 261 263 264 266 269 272 274 275 278 281 283 286 289 292 294 295 297 299 301 304 307 309 311 314 316 317 318 319 320 320
249 249 249 249 251 252 253 254 254 255 256 257 258 259 261 263 265 268 271 273 275 277 280 283 285 288 290 292 294 296 298 301 303 305 308 310 313 315 317 318 319 319 319
249 248 248 249 250 251 252 252 254 255 256 256 257 258 259 261 263 266 268 271 274 276 279 282 284 286 289 291 293 295 297 300 302 304 307 309 312 314 316 318 319 320 320
248 248 248 248 249 251 251 251 252 254 255 256 256 257 258 260 262 264 266 269 272 275 277 281 283 285 287 289 291 294 296 299 301 303 306 309 311 313 315 317 318 320 320
247 247 248 248 249 250 251 252 252 253 254 255 256 256 256 258 261 263 265 267 270 273 276 279 282 284 287 288 290 293 295 298 300 303 305 308 311 313 315 316 318 319 320
246 246 247 247 248 250 251 251 251 252 254 254 255 255 256 258 260 263 264 266 268 271 274 277 280 283 285 288 289 292 294 297 300 302 305 308 310 312 314 316 318 319 320
245 245 245 246 247 249 250 250 250 252 253 253 254 255 256 257 259 262 263 265 267 270 273 277 280 281 284 286 289 291 294 296 299 302 304 307 310 312 314 315 317 318 319
244 244 244 244 245 247 248 249 250 251 251 252 253 254 255 256 258 260 263 265 266 268 272 276 278 280 283 286 288 291 293 295 298 301 304 307 309 312 314 315 317 318 318
243 243 243 244 244 246 247 248 249 250 251 251 253 254 255 256 257 259 262 263 265 267 270 273 276 279 282 285 288 290 292 294 298 301 303 306 309 311 313 315 316 317 318
243 243 242 243 244 245 246 247 249 251 250 251 252 253 254 255 256 257 259 262 264 266 268 271 274 277 280 284 286 289 291 294 297 300 302 305 308 310 313 314 316 317 318
241 242 242 242 243 244 245 246 248 249 249 250 251 253 254 254 255 257 258 260 263 265 267 269 272 275 279 282 285 288 290 293 296 298 301 304 307 310 312 314 315 316 317
241 241 241 242 242 244 245 245 246 247 248 249 251 252 253 254 254 256 257 258 262 264 266 268 270 274 277 281 283 286 289 292 295 297 300 303 307 309 311 313 314 315 317
240 240 240 242 243 243 245 246 245 246 246 248 249 251 253 254 254 255 256 258 260 263 266 267 269 272 276 279 282 285 288 291 294 296 299 303 306 309 311 313 314 315 316
241 239 239 240 242 242 244 246 245 245 246 247 248 250 251 253 254 255 256 258 260 263 265 267 269 272 275 278 280 283 287 290 293 295 298 302 305 308 311 312 313 314 315
241 240 239 240 241 243 244 245 245 245 245 246 247 249 250 251 253 255 256 257 260 263 264 266 269 271 274 277 280 283 286 290 293 295 297 300 304 307 309 311 312 313 315
242 241 240 240 241 242 243 244 245 246 246 246 247 249 250 251 252 255 256 257 259 262 265 266 268 271 274 277 279 283 286 290 292 294 297 300 303 305 308 310 311 312 314
243 242 240 240 241 242 243 244 246 247 247 247 247 248 250 250 252 255 256 257 258 261 264 265 267 270 272 275 279 283 287 289 291 293 296 298 302 304 307 309 310 312 313
245 244 242 241 241 242 243 244 245 246 247 246 247 248 250 250 251 253 256 257 258 260 263 265 267 269 272 274 278 283 286 288 291 293 295 298 301 304 306 307 309 311 312
245 245 243 241 241 242 243 244 245 245 246 246 246 248 249 250 251 252 255 256 257 260 261 264 267 270 272 275 278 282 285 288 290 293 295 298 301 303 305 307 308 310 312
245 245 244 242 243 243 243 244 244 244 244 245 246 247 248 249 250 251 253 255 256 259 261 264 267 269 272 275 278 281 284 287 290 293 295 298 301 303 305 307 308 310 311
247 246 246 244 244 243 242 243 244 242 243 244 245 247 247 248 248 250 252 254 256 258 260 263 266 269 272 274 276 280 283 286 288 291 294 297 300 303 304 306 308 310 311
248 247 246 245 244 242 242 243 242 242 242 243 244 246 246 247 248 250 252 253 256 258 261 263 266 269 271 272 274 278 281 285 287 290 293 296 299 302 303 305 306 308 311
248 247 246 244 243 242 241 242 243 242 242 243 245 245 244 247 249 251 252 254 256 258 261 263 265 268 270 272 274 277 280 284 287 289 292 295 299 300 302 303 305 308 310
246 246 245 243 242 241 239 240 241 241 242 243 244 245 245 247 249 251 252 253 255 257 260 263 266 268 269 272 275 278 280 283 287 289 292 295 297 299 301 302 304 307 309
246 245 244 242 242 242 240 239 239 241 242 242 243 244 245 247 248 250 251 253 255 257 258 261 264 267 269 271 273 276 280 283 287 289 291 294 297 298 299 301 303 306 309
247 245 243 243 244 244 243 242 241 242 243 242 243 244 245 248 249 250 251 252 254 256 258 261 264 266 267 270 272 275 279 283 287 290 292 294 296 298 298 300 302 305 309
Height
5795 5798 5800 5802 5804 5806 5808 5810 5811 5813 5814 5816 5817 5818 5819 5820 5820 5820 5820 5820 5820 5820 5820 5819 5818 5817 5816 5814 5813 5811 5809 5807 5804 5802 5799 5796 5792 5789 5785 5781 5776 5772 5767
5787 5789 5792 5794 5796 5798 5800 5802 5804 5806 5807 5809 5810 5811 5812 5813 5814 5815 5815 5815 5815 5814 5814 5813 5813 5812 5810 5809 5807 5805 5803 5801 5799 5796 5793 5790 5786 5783 5778 5774 5769 5765 5760
5777 5780 5783 5785 5788 5790 5792 5794 5796 5798 5800 5802 5803 5804 5805 5806 5807 5808 5808 5809 5809 5808 5808 5808 5807 5806 5805 5803 5801 5799 5797 5795 5793 5790 5787 5783 5780 5776 5772 5767 5762 5757 5752
5767 5770 5773 5776 5779 5781 5783 5786 5788 5790 5792 5793 5795 5797 5798 5799 5800 5801 5801 5802 5802 5802 5802 5801 5801 5800 5798 5797 5795 5793 5791 5789 5786 5783 5780 5777 5773 5769 5765 5760 5755 5750 5744
5756 5760 5763 5766 5769 5772 5774 5777 5779 5781 5783 5785 5787 5789 5790 5791 5792 5793 5794 5795 5795 5795 5795 5795 5794 5793 5792 5791 5789 5787 5785 5782 5780 5777 5774 5770 5766 5762 5758 5753 5748 5742 5736
5744 5748 5752 5755 5758 5761 5764 5767 5770 5772 5774 5776 5778 5780 5782 5783 5784 5786 5787 5787 5788 5788 5788 5788 5787 5786 5785 5784 5782 5780 5778 5776 5773 5770 5767 5763 5759 5755 5750 5745 5740 5734 5728
5732 5736 5740 5744 5747 5750 5754 5756 5759 5762 5764 5766 5768 5771 5773 5775 5776 5778 5779 5780 5780 5781 5781 5780 5780 5779 5778 5777 5775 5773 5771 5769 5766 5763 5759 5756 5752 5747 5742 5737 5732 5726 5719
5719 5723 5728 5732 5736 5739 5742 5746 5749 5752 5754 5756 5759 5760 5763 5766 5768 5769 5771 5771 5772 5772 5773 5773 5772 5772 5771 5769 5768 5766 5764 5761 5758 5755 5752 5748 5744 5739 5735 5729 5723 5717 5711
5706 5711 5715 5720 5724 5727 5731 5734 5738 5741 5744 5746 5748 5751 5753 5756 5759 5761 5762 5763 5763 5764 5764 5764 5764 5764 5763 5761 5760 5758 5756 5753 5751 5748 5744 5740 5736 5732 5727 5721 5715 5709 5703
5693 5697 5702 5706 5711 5715 5719 5722 5726 5729 5732 5735 5737 5740 5744 5746 5748 5751 5753 5754 5755 5755 5756 5756 5756 5755 5754 5753 5752 5750 5748 5746 5743 5740 5736 5733 5728 5724 5718 5713 5707 5700 5694
5678 5683 5688 5693 5698 5702 5706 5710 5713 5717 5721 5724 5727 5729 5732 5735 5738 5740 5743 5744 5745 5746 5747 5747 5747 5746 5746 5745 5743 5742 5740 5737 5735 5731 5728 5724 5720 5715 5710 5704 5698 5692 5686
5664 5669 5674 5679 5684 5689 5693 5697 5701 5705 5709 5712 5715 5718 5721 5724 5727 5730 5732 5734 5735 5736 5737 5737 5738 5737 5737 5736 5735 5733 5731 5729 5726 5723 5720 5716 5712 5707 5702 5696 5690 5683 5677
5650 5655 5660 5666 5671 5676 5680 5684 5688 5692 5696 5700 5704 5707 5710 5713 5716 5719 5721 5723 5725 5726 5727 5728 5728 5728 5728 5727 5726 5724 5722 5720 5717 5714 5711 5707 5703 5698 5693 5687 5681 5675 5669
5636 5642 5647 5652 5657 5662 5667 5671 5675 5680 5684 5688 5692 5695 5699 5702 5705 5708 5710 5713 5714 5716 5718 5719 5719 5719 5718 5717 5716 5715 5713 5711 5708 5705 5702 5698 5694 5689 5684 5678 5672 5666 5660
5621 5627 5633 5638 5643 5649 5654 5659 5663 5668 5672 5675 5679 5683 5687 5690 5694 5697 5699 5702 5704 5706 5708 5709 5709 5709 5708 5708 5707 5706 5704 5702 5699 5696 5693 5689 5685 5680 5675 5669 5663 5658 5651
5608 5613 5619 5625 5630 5636 5641 5645 5650 5655 5659 5663 5667 5671 5675 5679 5682 5685 5688 5691 5693 5695 5697 5699 5699 5699 5698 5698 5697 5696 5694 5692 5690 5687 5683 5679 5675 5671 5666 5660 5655 5649 5642
5595 5600 5606 5611 5616 5622 5627 5632 5637 5641 5646 5651 5655 5659 5663 5668 5671 5674 5677 5679 5682 5684 5686 5688 5689 5689 5688 5688 5687 5686 5684 5682 5680 5677 5673 5670 5666 5661 5656 5651 5645 5640 5634
5583 5587 5592 5597 5603 5608 5613 5618 5623 5628 5633 5638 5643 5647 5652 5655 5659 5663 5666 5668 5671 5673 5675 5677 5678 5678 5678 5678 5677 5676 5675 5673 5670 5667 5664 5660 5656 5652 5647 5642 5636 5630 5625
5571 5575 5579 5584 5590 5595 5600 5605 5610 5615 5620 5626 5631 5636 5640 5644 5648 5651 5654 5657 5660 5662 5663 5665 5667 5668 5668 5668 5667 5666 5665 5663 5660 5657 5654 5651 5646 5642 5637 5633 5627 5621 5616
5559 5563 5567 5572 5577 5582 5588 5592 5597 5602 5608 5613 5619 5624 5628 5632 5636 5639 5642 5646 5648 5650 5652 5654 5655 5657 5657 5657 5657 5656 5654 5652 5650 5647 5644 5641 5637 5632 5628 5623 5618 5613 5607
5548 5551 5555 5560 5565 5569 5575 5580 5585 5590 5595 5601 5606 5611 5616 5620 5624 5627 5630 5634 5636 5638 5641 5643 5644 5645 5646 5647 5647 5646 5644 5642 5640 5638 5635 5632 5628 5623 5619 5614 5608 5603 5598
5536 5540 5544 5548 5553 5557 5563 5568 5572 5578 5584 5589 5594 5599 5604 5608 5612 5615 5618 5622 5625 5627 5630 5632 5634 5635 5636 5636 5636 5635 5633 5632 5631 5629 5625 5622 5618 5614 5609 5604 5599 5594 5589
5525 5529 5533 5537 5541 5546 5551 5556 5561 5566 5572 5577 5582 5587 5591 5596 5599 5603 5606 5610 5613 5616 5619 5621 5622 5624 5625 5625 5625 5624 5623 5621 5620 5618 5615 5612 5608 5604 5600 5595 5590 5585 5580
5514 5518 5522 5526 5531 5535 5540 5545 5550 5554 5560 5566 5570 5575 5580 5584 5588 5592 5595 5598 5602 5605 5608 5610 5612 5613 5613 5613 5613 5613 5612 5611 5610 5608 5605 5602 5598 5594 5590 5586 5581 5576 5571
5503 5506 5511 5515 5520 5525 5529 5533 5538 5544 5549 5554 5559 5564 5568 5573 5577 5580 5584 5588 5591 5594 5596 5598 5600 5601 5602 5602 5603 5602 5602 5601 5599 5597 5595 5592 5588 5584 5580 5576 5572 5567 5562
5491 5495 5500 5504 5509 5513 5518 5523 5527 5533 5539 5544 5548 5553 5557 5561 5565 5568 5572 5576 5580 5583 5585 5587 5589 5591 5591 5592 5592 5592 5591 5590 5589 5587 5585 5582 5578 5574 5571 5567 5562 5557 5552